owner,sensor,date,latitude,longitude,vertical_datum,sea_water_practical_salinity,qcFlag 
TABS,ioos:station:wmo:42051:1,2012-04-01T00:00:00Z,29.6350,-93.6417,2.0,21.0368,11111222 
TABS,ioos:station:wmo:42051:1,2012-04-01T00:30:00Z,29.6350,-93.6417,2.0,21.0568,11111222 
TABS,ioos:station:wmo:42051:1,2012-04-01T01:00:00Z,29.6350,-93.6417,2.0,21.0419,11111222 
TABS,ioos:station:wmo:42051:1,2012-04-01T01:30:00Z,29.6350,-93.6417,2.0,21.0606,11111222 
TABS,ioos:station:wmo:42051:1,2012-04-01T02:00:00Z,29.6350,-93.6417,2.0,21.0604,11111222 
TABS,ioos:station:wmo:42051:1,2012-04-01T02:30:00Z,29.6350,-93.6417,2.0,21.0402,11111222 
TABS,ioos:station:wmo:42051:1,2012-04-01T03:00:00Z,29.6350,-93.6417,2.0,21.054,11111222 
TABS,ioos:station:wmo:42051:1,2012-04-01T03:30:00Z,29.6350,-93.6417,2.0,21.0548,11111222 
TABS,ioos:station:wmo:42051:1,2012-04-01T04:00:00Z,29.6350,-93.6417,2.0,21.0556,11111222 
TABS,ioos:station:wmo:42051:1,2012-04-01T04:30:00Z,29.6350,-93.6417,2.0,21.0613,11111222 
TABS,ioos:station:wmo:42051:1,2012-04-01T05:00:00Z,29.6350,-93.6417,2.0,21.0351,11111222 
TABS,ioos:station:wmo:42051:1,2012-04-01T05:30:00Z,29.6350,-93.6417,2.0,21.029,11111222 
TABS,ioos:station:wmo:42051:1,2012-04-01T06:00:00Z,29.6350,-93.6417,2.0,21.0226,11111222 
TABS,ioos:station:wmo:42051:1,2012-04-01T06:30:00Z,29.6350,-93.6417,2.0,21.0252,11111222 
TABS,ioos:station:wmo:42051:1,2012-04-01T07:00:00Z,29.6350,-93.6417,2.0,21.0308,11111222 
TABS,ioos:station:wmo:42051:1,2012-04-01T07:30:00Z,29.6350,-93.6417,2.0,21.0456,11111222 
TABS,ioos:station:wmo:42051:1,2012-04-01T08:00:00Z,29.6350,-93.6417,2.0,21.0778,11111222 
TABS,ioos:station:wmo:42051:1,2012-04-01T08:30:00Z,29.6350,-93.6417,2.0,21.1201,11111222 
TABS,ioos:station:wmo:42051:1,2012-04-01T09:00:00Z,29.6350,-93.6417,2.0,21.1663,11111222 
TABS,ioos:station:wmo:42051:1,2012-04-01T09:30:00Z,29.6350,-93.6417,2.0,21.161,11111222 
TABS,ioos:station:wmo:42051:1,2012-04-01T10:00:00Z,29.6350,-93.6417,2.0,21.173,11111222 
TABS,ioos:station:wmo:42051:1,2012-04-01T10:30:00Z,29.6350,-93.6417,2.0,21.1653,11111222 
TABS,ioos:station:wmo:42051:1,2012-04-01T11:00:00Z,29.6350,-93.6417,2.0,21.177,11111222 
TABS,ioos:station:wmo:42051:1,2012-04-01T11:30:00Z,29.6350,-93.6417,2.0,21.1702,11111222 
TABS,ioos:station:wmo:42051:1,2012-04-01T12:00:00Z,29.6350,-93.6417,2.0,21.1021,11111222 
TABS,ioos:station:wmo:42051:1,2012-04-01T12:30:00Z,29.6350,-93.6417,2.0,21.0853,11111222 
TABS,ioos:station:wmo:42051:1,2012-04-01T13:00:00Z,29.6350,-93.6417,2.0,21.1187,11111222 
TABS,ioos:station:wmo:42051:1,2012-04-01T13:30:00Z,29.6350,-93.6417,2.0,21.0939,11111222 
TABS,ioos:station:wmo:42051:1,2012-04-01T14:00:00Z,29.6350,-93.6417,2.0,21.0735,11111222 
TABS,ioos:station:wmo:42051:1,2012-04-01T14:30:00Z,29.6350,-93.6417,2.0,21.0959,11111222 
TABS,ioos:station:wmo:42051:1,2012-04-01T15:00:00Z,29.6350,-93.6417,2.0,21.1484,11111222 
TABS,ioos:station:wmo:42051:1,2012-04-01T15:30:00Z,29.6350,-93.6417,2.0,21.1631,11111222 
TABS,ioos:station:wmo:42051:1,2012-04-01T16:00:00Z,29.6350,-93.6417,2.0,21.1946,11111222 
TABS,ioos:station:wmo:42051:1,2012-04-01T16:30:00Z,29.6350,-93.6417,2.0,21.2034,11111222 
TABS,ioos:station:wmo:42051:1,2012-04-01T17:00:00Z,29.6350,-93.6417,2.0,20.9517,11111222 
TABS,ioos:station:wmo:42051:1,2012-04-01T17:30:00Z,29.6350,-93.6417,2.0,20.5638,11111222 
TABS,ioos:station:wmo:42051:1,2012-04-01T18:00:00Z,29.6350,-93.6417,2.0,20.3728,11111222 
TABS,ioos:station:wmo:42051:1,2012-04-01T18:30:00Z,29.6350,-93.6417,2.0,20.3034,11111222 
TABS,ioos:station:wmo:42051:1,2012-04-01T19:00:00Z,29.6350,-93.6417,2.0,20.2597,11111222 
TABS,ioos:station:wmo:42051:1,2012-04-01T19:30:00Z,29.6350,-93.6417,2.0,20.1325,11111222 
TABS,ioos:station:wmo:42051:1,2012-04-01T20:00:00Z,29.6350,-93.6417,2.0,20.1013,11111222 
TABS,ioos:station:wmo:42051:1,2012-04-01T20:30:00Z,29.6350,-93.6417,2.0,19.9911,11111222 
TABS,ioos:station:wmo:42051:1,2012-04-01T21:00:00Z,29.6350,-93.6417,2.0,19.8165,11111222 
TABS,ioos:station:wmo:42051:1,2012-04-01T21:30:00Z,29.6350,-93.6417,2.0,19.7926,11111222 
TABS,ioos:station:wmo:42051:1,2012-04-01T22:00:00Z,29.6350,-93.6417,2.0,19.37,11111222 
TABS,ioos:station:wmo:42051:1,2012-04-01T22:30:00Z,29.6350,-93.6417,2.0,19.17,11111222 
TABS,ioos:station:wmo:42051:1,2012-04-01T23:00:00Z,29.6350,-93.6417,2.0,19.3237,11111222 
TABS,ioos:station:wmo:42051:1,2012-04-01T23:30:00Z,29.6350,-93.6417,2.0,19.3803,11111222 
TABS,ioos:station:wmo:42051:1,2012-04-02T00:00:00Z,29.6350,-93.6417,2.0,19.4116,11111222 
TABS,ioos:station:wmo:42051:1,2012-04-02T00:30:00Z,29.6350,-93.6417,2.0,19.328,11111222 
TABS,ioos:station:wmo:42051:1,2012-04-02T01:00:00Z,29.6350,-93.6417,2.0,19.2848,11111222 
TABS,ioos:station:wmo:42051:1,2012-04-02T01:30:00Z,29.6350,-93.6417,2.0,19.1885,11111222 
TABS,ioos:station:wmo:42051:1,2012-04-02T02:00:00Z,29.6350,-93.6417,2.0,19.135,11111222 
TABS,ioos:station:wmo:42051:1,2012-04-02T02:30:00Z,29.6350,-93.6417,2.0,19.127,11111222 
TABS,ioos:station:wmo:42051:1,2012-04-02T03:00:00Z,29.6350,-93.6417,2.0,19.1682,11111222 
TABS,ioos:station:wmo:42051:1,2012-04-02T03:30:00Z,29.6350,-93.6417,2.0,19.1735,11111222 
TABS,ioos:station:wmo:42051:1,2012-04-02T04:00:00Z,29.6350,-93.6417,2.0,19.2415,11111222 
TABS,ioos:station:wmo:42051:1,2012-04-02T04:30:00Z,29.6350,-93.6417,2.0,19.3868,11111222 
TABS,ioos:station:wmo:42051:1,2012-04-02T05:00:00Z,29.6350,-93.6417,2.0,19.6355,11111222 
TABS,ioos:station:wmo:42051:1,2012-04-02T05:30:00Z,29.6350,-93.6417,2.0,20.0304,11111222 
TABS,ioos:station:wmo:42051:1,2012-04-02T06:00:00Z,29.6350,-93.6417,2.0,20.3793,11111222 
TABS,ioos:station:wmo:42051:1,2012-04-02T06:30:00Z,29.6350,-93.6417,2.0,20.5983,11111222 
TABS,ioos:station:wmo:42051:1,2012-04-02T07:00:00Z,29.6350,-93.6417,2.0,20.644,11111222 
TABS,ioos:station:wmo:42051:1,2012-04-02T07:30:00Z,29.6350,-93.6417,2.0,20.7284,11111222 
TABS,ioos:station:wmo:42051:1,2012-04-02T08:00:00Z,29.6350,-93.6417,2.0,20.8601,11111222 
TABS,ioos:station:wmo:42051:1,2012-04-02T08:30:00Z,29.6350,-93.6417,2.0,20.8931,11111222 
TABS,ioos:station:wmo:42051:1,2012-04-02T09:00:00Z,29.6350,-93.6417,2.0,21.1074,11111222 
TABS,ioos:station:wmo:42051:1,2012-04-02T09:30:00Z,29.6350,-93.6417,2.0,21.1553,11111222 
TABS,ioos:station:wmo:42051:1,2012-04-02T10:00:00Z,29.6350,-93.6417,2.0,21.2001,11111222 
TABS,ioos:station:wmo:42051:1,2012-04-02T10:30:00Z,29.6350,-93.6417,2.0,21.2971,11111222 
TABS,ioos:station:wmo:42051:1,2012-04-02T11:00:00Z,29.6350,-93.6417,2.0,21.3393,11111222 
TABS,ioos:station:wmo:42051:1,2012-04-02T11:30:00Z,29.6350,-93.6417,2.0,21.4218,11111222 
TABS,ioos:station:wmo:42051:1,2012-04-02T12:00:00Z,29.6350,-93.6417,2.0,21.449,11111222 
TABS,ioos:station:wmo:42051:1,2012-04-02T12:30:00Z,29.6350,-93.6417,2.0,21.5244,11111222 
TABS,ioos:station:wmo:42051:1,2012-04-02T13:00:00Z,29.6350,-93.6417,2.0,21.6394,11111222 
TABS,ioos:station:wmo:42051:1,2012-04-02T13:30:00Z,29.6350,-93.6417,2.0,21.7043,11111222 
TABS,ioos:station:wmo:42051:1,2012-04-02T14:00:00Z,29.6350,-93.6417,2.0,21.8099,11111222 
TABS,ioos:station:wmo:42051:1,2012-04-02T14:30:00Z,29.6350,-93.6417,2.0,21.9524,11111222 
TABS,ioos:station:wmo:42051:1,2012-04-02T15:00:00Z,29.6350,-93.6417,2.0,22.2194,11111222 
TABS,ioos:station:wmo:42051:1,2012-04-02T15:30:00Z,29.6350,-93.6417,2.0,22.6307,11111222 
TABS,ioos:station:wmo:42051:1,2012-04-02T16:00:00Z,29.6350,-93.6417,2.0,22.8702,11111222 
TABS,ioos:station:wmo:42051:1,2012-04-02T16:30:00Z,29.6350,-93.6417,2.0,22.8399,11111222 
TABS,ioos:station:wmo:42051:1,2012-04-02T17:00:00Z,29.6350,-93.6417,2.0,22.7396,11111222 
TABS,ioos:station:wmo:42051:1,2012-04-02T17:30:00Z,29.6350,-93.6417,2.0,22.536,11111222 
TABS,ioos:station:wmo:42051:1,2012-04-02T18:00:00Z,29.6350,-93.6417,2.0,22.3834,11111222 
TABS,ioos:station:wmo:42051:1,2012-04-02T18:30:00Z,29.6350,-93.6417,2.0,22.3146,11111222 
TABS,ioos:station:wmo:42051:1,2012-04-02T19:00:00Z,29.6350,-93.6417,2.0,21.9789,11111222 
TABS,ioos:station:wmo:42051:1,2012-04-02T19:30:00Z,29.6350,-93.6417,2.0,21.892,11111222 
TABS,ioos:station:wmo:42051:1,2012-04-02T20:00:00Z,29.6350,-93.6417,2.0,21.7011,11111222 
TABS,ioos:station:wmo:42051:1,2012-04-02T20:30:00Z,29.6350,-93.6417,2.0,21.5387,11111222 
TABS,ioos:station:wmo:42051:1,2012-04-02T21:00:00Z,29.6350,-93.6417,2.0,21.4014,11111222 
TABS,ioos:station:wmo:42051:1,2012-04-02T21:30:00Z,29.6350,-93.6417,2.0,21.3018,11111222 
TABS,ioos:station:wmo:42051:1,2012-04-02T22:00:00Z,29.6350,-93.6417,2.0,21.3114,11111222 
TABS,ioos:station:wmo:42051:1,2012-04-02T22:30:00Z,29.6350,-93.6417,2.0,21.3208,11111222 
TABS,ioos:station:wmo:42051:1,2012-04-02T23:00:00Z,29.6350,-93.6417,2.0,21.4341,11111222 
TABS,ioos:station:wmo:42051:1,2012-04-02T23:30:00Z,29.6350,-93.6417,2.0,21.7496,11111222 
TABS,ioos:station:wmo:42051:1,2012-04-03T00:00:00Z,29.6350,-93.6417,2.0,21.8709,11111222 
TABS,ioos:station:wmo:42051:1,2012-04-03T00:30:00Z,29.6350,-93.6417,2.0,21.9785,11111222 
TABS,ioos:station:wmo:42051:1,2012-04-03T01:00:00Z,29.6350,-93.6417,2.0,22.0796,11111222 
TABS,ioos:station:wmo:42051:1,2012-04-03T01:30:00Z,29.6350,-93.6417,2.0,22.29,11111222 
TABS,ioos:station:wmo:42051:1,2012-04-03T02:00:00Z,29.6350,-93.6417,2.0,22.5522,11111222 
TABS,ioos:station:wmo:42051:1,2012-04-03T02:30:00Z,29.6350,-93.6417,2.0,22.8891,11111222 
TABS,ioos:station:wmo:42051:1,2012-04-03T03:00:00Z,29.6350,-93.6417,2.0,23.2454,11111222 
TABS,ioos:station:wmo:42051:1,2012-04-03T03:30:00Z,29.6350,-93.6417,2.0,23.4996,11111222 
TABS,ioos:station:wmo:42051:1,2012-04-03T04:00:00Z,29.6350,-93.6417,2.0,23.5491,11111222 
TABS,ioos:station:wmo:42051:1,2012-04-03T04:30:00Z,29.6350,-93.6417,2.0,23.5809,11111222 
TABS,ioos:station:wmo:42051:1,2012-04-03T05:00:00Z,29.6350,-93.6417,2.0,23.637,11111222 
TABS,ioos:station:wmo:42051:1,2012-04-03T05:30:00Z,29.6350,-93.6417,2.0,23.7184,11111222 
TABS,ioos:station:wmo:42051:1,2012-04-03T06:00:00Z,29.6350,-93.6417,2.0,23.7716,11111222 
TABS,ioos:station:wmo:42051:1,2012-04-03T06:30:00Z,29.6350,-93.6417,2.0,23.7678,11111222 
TABS,ioos:station:wmo:42051:1,2012-04-03T07:00:00Z,29.6350,-93.6417,2.0,23.7702,11111222 
TABS,ioos:station:wmo:42051:1,2012-04-03T07:30:00Z,29.6350,-93.6417,2.0,23.7634,11111222 
TABS,ioos:station:wmo:42051:1,2012-04-03T08:00:00Z,29.6350,-93.6417,2.0,23.766,11111222 
TABS,ioos:station:wmo:42051:1,2012-04-03T08:30:00Z,29.6350,-93.6417,2.0,23.7432,11111222 
TABS,ioos:station:wmo:42051:1,2012-04-03T09:00:00Z,29.6350,-93.6417,2.0,22.2144,11111222 
TABS,ioos:station:wmo:42051:1,2012-04-03T09:30:00Z,29.6350,-93.6417,2.0,22.2155,11111222 
TABS,ioos:station:wmo:42051:1,2012-04-03T10:00:00Z,29.6350,-93.6417,2.0,22.2351,11111222 
TABS,ioos:station:wmo:42051:1,2012-04-03T10:30:00Z,29.6350,-93.6417,2.0,22.1742,11111222 
TABS,ioos:station:wmo:42051:1,2012-04-03T11:00:00Z,29.6350,-93.6417,2.0,22.3363,11111222 
TABS,ioos:station:wmo:42051:1,2012-04-03T11:30:00Z,29.6350,-93.6417,2.0,22.3992,11111222 
TABS,ioos:station:wmo:42051:1,2012-04-03T12:00:00Z,29.6350,-93.6417,2.0,22.3485,11111222 
TABS,ioos:station:wmo:42051:1,2012-04-03T12:30:00Z,29.6350,-93.6417,2.0,22.2719,11111222 
TABS,ioos:station:wmo:42051:1,2012-04-03T13:00:00Z,29.6350,-93.6417,2.0,22.3057,11111222 
TABS,ioos:station:wmo:42051:1,2012-04-03T13:30:00Z,29.6350,-93.6417,2.0,22.3044,11111222 
TABS,ioos:station:wmo:42051:1,2012-04-03T14:00:00Z,29.6350,-93.6417,2.0,22.2798,11111222 
TABS,ioos:station:wmo:42051:1,2012-04-03T15:30:00Z,29.6350,-93.6417,2.0,21.8797,11111222 
TABS,ioos:station:wmo:42051:1,2012-04-03T16:00:00Z,29.6350,-93.6417,2.0,21.6415,11111222 
TABS,ioos:station:wmo:42051:1,2012-04-03T16:30:00Z,29.6350,-93.6417,2.0,21.4928,11111222 
TABS,ioos:station:wmo:42051:1,2012-04-03T17:00:00Z,29.6350,-93.6417,2.0,21.3711,11111222 
TABS,ioos:station:wmo:42051:1,2012-04-03T17:30:00Z,29.6350,-93.6417,2.0,21.245,11111222 
TABS,ioos:station:wmo:42051:1,2012-04-03T18:00:00Z,29.6350,-93.6417,2.0,21.1688,11111222 
TABS,ioos:station:wmo:42051:1,2012-04-03T18:30:00Z,29.6350,-93.6417,2.0,20.6627,11111222 
TABS,ioos:station:wmo:42051:1,2012-04-03T19:00:00Z,29.6350,-93.6417,2.0,20.2596,11111222 
TABS,ioos:station:wmo:42051:1,2012-04-03T19:30:00Z,29.6350,-93.6417,2.0,20.1517,11111222 
TABS,ioos:station:wmo:42051:1,2012-04-03T20:00:00Z,29.6350,-93.6417,2.0,20.031,11111222 
TABS,ioos:station:wmo:42051:1,2012-04-03T20:30:00Z,29.6350,-93.6417,2.0,19.9165,11111222 
TABS,ioos:station:wmo:42051:1,2012-04-03T21:00:00Z,29.6350,-93.6417,2.0,19.4145,11111222 
TABS,ioos:station:wmo:42051:1,2012-04-03T21:30:00Z,29.6350,-93.6417,2.0,19.2639,11111222 
TABS,ioos:station:wmo:42051:1,2012-04-03T22:00:00Z,29.6350,-93.6417,2.0,19.2148,11111222 
TABS,ioos:station:wmo:42051:1,2012-04-03T22:30:00Z,29.6350,-93.6417,2.0,19.2155,11111222 
TABS,ioos:station:wmo:42051:1,2012-04-03T23:00:00Z,29.6350,-93.6417,2.0,19.0845,11111222 
TABS,ioos:station:wmo:42051:1,2012-04-03T23:30:00Z,29.6350,-93.6417,2.0,19.0071,11111222 
TABS,ioos:station:wmo:42051:1,2012-04-04T00:00:00Z,29.6350,-93.6417,2.0,18.9336,11111222 
TABS,ioos:station:wmo:42051:1,2012-04-04T00:30:00Z,29.6350,-93.6417,2.0,18.8634,11111222 
TABS,ioos:station:wmo:42051:1,2012-04-04T01:00:00Z,29.6350,-93.6417,2.0,18.7657,11111222 
TABS,ioos:station:wmo:42051:1,2012-04-04T01:30:00Z,29.6350,-93.6417,2.0,18.5909,11111222 
TABS,ioos:station:wmo:42051:1,2012-04-04T02:00:00Z,29.6350,-93.6417,2.0,18.604,11111222 
TABS,ioos:station:wmo:42051:1,2012-04-04T02:30:00Z,29.6350,-93.6417,2.0,18.4699,11111222 
TABS,ioos:station:wmo:42051:1,2012-04-04T03:00:00Z,29.6350,-93.6417,2.0,18.2126,11111222 
TABS,ioos:station:wmo:42051:1,2012-04-04T03:30:00Z,29.6350,-93.6417,2.0,18.051,11111222 
TABS,ioos:station:wmo:42051:1,2012-04-04T04:00:00Z,29.6350,-93.6417,2.0,18.035,11111222 
TABS,ioos:station:wmo:42051:1,2012-04-04T04:30:00Z,29.6350,-93.6417,2.0,18.0415,11111222 
TABS,ioos:station:wmo:42051:1,2012-04-04T05:00:00Z,29.6350,-93.6417,2.0,17.9999,11111222 
TABS,ioos:station:wmo:42051:1,2012-04-04T05:30:00Z,29.6350,-93.6417,2.0,18.2742,11111222 
TABS,ioos:station:wmo:42051:1,2012-04-04T06:00:00Z,29.6350,-93.6417,2.0,18.3262,11111222 
TABS,ioos:station:wmo:42051:1,2012-04-04T06:30:00Z,29.6350,-93.6417,2.0,18.1678,11111222 
TABS,ioos:station:wmo:42051:1,2012-04-04T07:00:00Z,29.6350,-93.6417,2.0,18.2195,11111222 
TABS,ioos:station:wmo:42051:1,2012-04-04T07:30:00Z,29.6350,-93.6417,2.0,18.3821,11111222 
TABS,ioos:station:wmo:42051:1,2012-04-04T08:00:00Z,29.6350,-93.6417,2.0,18.5322,11111222 
TABS,ioos:station:wmo:42051:1,2012-04-04T08:30:00Z,29.6350,-93.6417,2.0,18.6841,11111222 
TABS,ioos:station:wmo:42051:1,2012-04-04T09:00:00Z,29.6350,-93.6417,2.0,18.9362,11111222 
TABS,ioos:station:wmo:42051:1,2012-04-04T09:30:00Z,29.6350,-93.6417,2.0,19.2912,11111222 
TABS,ioos:station:wmo:42051:1,2012-04-04T10:00:00Z,29.6350,-93.6417,2.0,19.2646,11111222 
TABS,ioos:station:wmo:42051:1,2012-04-04T10:30:00Z,29.6350,-93.6417,2.0,19.7393,11111222 
TABS,ioos:station:wmo:42051:1,2012-04-04T11:00:00Z,29.6350,-93.6417,2.0,20.7215,11111222 
TABS,ioos:station:wmo:42051:1,2012-04-04T11:30:00Z,29.6350,-93.6417,2.0,20.5434,11111222 
TABS,ioos:station:wmo:42051:1,2012-04-04T12:00:00Z,29.6350,-93.6417,2.0,21.1856,11111222 
TABS,ioos:station:wmo:42051:1,2012-04-04T12:30:00Z,29.6350,-93.6417,2.0,20.9328,11111222 
TABS,ioos:station:wmo:42051:1,2012-04-04T13:00:00Z,29.6350,-93.6417,2.0,21.3038,11111222 
TABS,ioos:station:wmo:42051:1,2012-04-04T13:30:00Z,29.6350,-93.6417,2.0,21.6383,11111222 
TABS,ioos:station:wmo:42051:1,2012-04-04T14:00:00Z,29.6350,-93.6417,2.0,21.9991,11111222 
TABS,ioos:station:wmo:42051:1,2012-04-04T14:30:00Z,29.6350,-93.6417,2.0,22.6657,11111222 
TABS,ioos:station:wmo:42051:1,2012-04-04T15:00:00Z,29.6350,-93.6417,2.0,23.3583,11111222 
TABS,ioos:station:wmo:42051:1,2012-04-04T15:30:00Z,29.6350,-93.6417,2.0,23.7617,11111222 
TABS,ioos:station:wmo:42051:1,2012-04-04T16:00:00Z,29.6350,-93.6417,2.0,23.9777,11111222 
TABS,ioos:station:wmo:42051:1,2012-04-04T16:30:00Z,29.6350,-93.6417,2.0,23.932,11111222 
TABS,ioos:station:wmo:42051:1,2012-04-04T17:00:00Z,29.6350,-93.6417,2.0,23.8052,11111222 
TABS,ioos:station:wmo:42051:1,2012-04-04T17:30:00Z,29.6350,-93.6417,2.0,23.7335,11111222 
TABS,ioos:station:wmo:42051:1,2012-04-04T18:00:00Z,29.6350,-93.6417,2.0,23.964,11111222 
TABS,ioos:station:wmo:42051:1,2012-04-04T18:30:00Z,29.6350,-93.6417,2.0,24.1517,11111222 
TABS,ioos:station:wmo:42051:1,2012-04-04T19:00:00Z,29.6350,-93.6417,2.0,24.3077,11111222 
TABS,ioos:station:wmo:42051:1,2012-04-04T19:30:00Z,29.6350,-93.6417,2.0,22.9822,11111222 
TABS,ioos:station:wmo:42051:1,2012-04-04T20:00:00Z,29.6350,-93.6417,2.0,22.217,11111222 
TABS,ioos:station:wmo:42051:1,2012-04-04T20:30:00Z,29.6350,-93.6417,2.0,21.8969,11111222 
TABS,ioos:station:wmo:42051:1,2012-04-04T21:00:00Z,29.6350,-93.6417,2.0,21.8415,11111222 
TABS,ioos:station:wmo:42051:1,2012-04-04T21:30:00Z,29.6350,-93.6417,2.0,21.757,11111222 
TABS,ioos:station:wmo:42051:1,2012-04-04T22:00:00Z,29.6350,-93.6417,2.0,21.745,11111222 
TABS,ioos:station:wmo:42051:1,2012-04-04T22:30:00Z,29.6350,-93.6417,2.0,21.7364,11111222 
TABS,ioos:station:wmo:42051:1,2012-04-04T23:00:00Z,29.6350,-93.6417,2.0,21.7119,11111222 
TABS,ioos:station:wmo:42051:1,2012-04-04T23:30:00Z,29.6350,-93.6417,2.0,21.6547,11111222 
TABS,ioos:station:wmo:42051:1,2012-04-05T00:00:00Z,29.6350,-93.6417,2.0,21.6276,11111222 
TABS,ioos:station:wmo:42051:1,2012-04-05T00:30:00Z,29.6350,-93.6417,2.0,21.5369,11111222 
TABS,ioos:station:wmo:42051:1,2012-04-05T01:00:00Z,29.6350,-93.6417,2.0,21.6171,11111222 
TABS,ioos:station:wmo:42051:1,2012-04-05T01:30:00Z,29.6350,-93.6417,2.0,21.6158,11111222 
TABS,ioos:station:wmo:42051:1,2012-04-05T02:00:00Z,29.6350,-93.6417,2.0,21.7361,11111222 
TABS,ioos:station:wmo:42051:1,2012-04-05T02:30:00Z,29.6350,-93.6417,2.0,21.7468,11111222 
TABS,ioos:station:wmo:42051:1,2012-04-05T03:00:00Z,29.6350,-93.6417,2.0,21.0126,11111222 
TABS,ioos:station:wmo:42051:1,2012-04-05T03:30:00Z,29.6350,-93.6417,2.0,21.014,11111222 
TABS,ioos:station:wmo:42051:1,2012-04-05T04:00:00Z,29.6350,-93.6417,2.0,20.7125,11111222 
TABS,ioos:station:wmo:42051:1,2012-04-05T04:30:00Z,29.6350,-93.6417,2.0,20.3683,11111222 
TABS,ioos:station:wmo:42051:1,2012-04-05T05:00:00Z,29.6350,-93.6417,2.0,20.1887,11111222 
TABS,ioos:station:wmo:42051:1,2012-04-05T05:30:00Z,29.6350,-93.6417,2.0,20.0496,11111222 
TABS,ioos:station:wmo:42051:1,2012-04-05T06:00:00Z,29.6350,-93.6417,2.0,20.1482,11111222 
TABS,ioos:station:wmo:42051:1,2012-04-05T06:30:00Z,29.6350,-93.6417,2.0,20.2668,11111222 
TABS,ioos:station:wmo:42051:1,2012-04-05T07:00:00Z,29.6350,-93.6417,2.0,20.3242,11111222 
TABS,ioos:station:wmo:42051:1,2012-04-05T07:30:00Z,29.6350,-93.6417,2.0,19.7269,11111222 
TABS,ioos:station:wmo:42051:1,2012-04-05T08:00:00Z,29.6350,-93.6417,2.0,19.5562,11111222 
TABS,ioos:station:wmo:42051:1,2012-04-05T08:30:00Z,29.6350,-93.6417,2.0,18.4737,11111222 
TABS,ioos:station:wmo:42051:1,2012-04-05T09:00:00Z,29.6350,-93.6417,2.0,18.3859,11111222 
TABS,ioos:station:wmo:42051:1,2012-04-05T09:30:00Z,29.6350,-93.6417,2.0,18.3264,11111222 
TABS,ioos:station:wmo:42051:1,2012-04-05T10:00:00Z,29.6350,-93.6417,2.0,18.4682,11111222 
TABS,ioos:station:wmo:42051:1,2012-04-05T10:30:00Z,29.6350,-93.6417,2.0,18.5125,11111222 
TABS,ioos:station:wmo:42051:1,2012-04-05T11:00:00Z,29.6350,-93.6417,2.0,18.3585,11111222 
TABS,ioos:station:wmo:42051:1,2012-04-05T11:30:00Z,29.6350,-93.6417,2.0,18.3019,11111222 
TABS,ioos:station:wmo:42051:1,2012-04-05T12:00:00Z,29.6350,-93.6417,2.0,18.3624,11111222 
TABS,ioos:station:wmo:42051:1,2012-04-05T12:30:00Z,29.6350,-93.6417,2.0,18.4346,11111222 
TABS,ioos:station:wmo:42051:1,2012-04-05T13:00:00Z,29.6350,-93.6417,2.0,18.5735,11111222 
TABS,ioos:station:wmo:42051:1,2012-04-05T13:30:00Z,29.6350,-93.6417,2.0,18.7183,11111222 
TABS,ioos:station:wmo:42051:1,2012-04-05T14:00:00Z,29.6350,-93.6417,2.0,18.8465,11111222 
TABS,ioos:station:wmo:42051:1,2012-04-05T14:30:00Z,29.6350,-93.6417,2.0,18.9321,11111222 
TABS,ioos:station:wmo:42051:1,2012-04-05T15:00:00Z,29.6350,-93.6417,2.0,19.0802,11111222 
TABS,ioos:station:wmo:42051:1,2012-04-05T15:30:00Z,29.6350,-93.6417,2.0,19.1999,11111222 
TABS,ioos:station:wmo:42051:1,2012-04-05T16:00:00Z,29.6350,-93.6417,2.0,19.2641,11111222 
TABS,ioos:station:wmo:42051:1,2012-04-05T16:30:00Z,29.6350,-93.6417,2.0,19.2248,11111222 
TABS,ioos:station:wmo:42051:1,2012-04-05T17:00:00Z,29.6350,-93.6417,2.0,19.389,11111222 
TABS,ioos:station:wmo:42051:1,2012-04-05T17:30:00Z,29.6350,-93.6417,2.0,19.438,11111222 
TABS,ioos:station:wmo:42051:1,2012-04-05T18:00:00Z,29.6350,-93.6417,2.0,19.5308,11111222 
TABS,ioos:station:wmo:42051:1,2012-04-05T18:30:00Z,29.6350,-93.6417,2.0,19.4472,11111222 
TABS,ioos:station:wmo:42051:1,2012-04-05T19:00:00Z,29.6350,-93.6417,2.0,19.4429,11111222 
TABS,ioos:station:wmo:42051:1,2012-04-05T19:30:00Z,29.6350,-93.6417,2.0,19.4584,11111222 
TABS,ioos:station:wmo:42051:1,2012-04-05T20:00:00Z,29.6350,-93.6417,2.0,18.4373,11111222 
TABS,ioos:station:wmo:42051:1,2012-04-05T20:30:00Z,29.6350,-93.6417,2.0,18.4742,11111222 
TABS,ioos:station:wmo:42051:1,2012-04-05T21:00:00Z,29.6350,-93.6417,2.0,17.9446,11111222 
TABS,ioos:station:wmo:42051:1,2012-04-05T21:30:00Z,29.6350,-93.6417,2.0,17.836,11111222 
TABS,ioos:station:wmo:42051:1,2012-04-05T22:00:00Z,29.6350,-93.6417,2.0,17.653,11111222 
TABS,ioos:station:wmo:42051:1,2012-04-05T22:30:00Z,29.6350,-93.6417,2.0,17.6216,11111222 
TABS,ioos:station:wmo:42051:1,2012-04-05T23:00:00Z,29.6350,-93.6417,2.0,17.5425,11111222 
TABS,ioos:station:wmo:42051:1,2012-04-05T23:30:00Z,29.6350,-93.6417,2.0,17.5364,11111222 
TABS,ioos:station:wmo:42051:1,2012-04-06T00:00:00Z,29.6350,-93.6417,2.0,17.5201,11111222 
TABS,ioos:station:wmo:42051:1,2012-04-06T00:30:00Z,29.6350,-93.6417,2.0,17.5537,11111222 
TABS,ioos:station:wmo:42051:1,2012-04-06T01:00:00Z,29.6350,-93.6417,2.0,17.4821,11111222 
TABS,ioos:station:wmo:42051:1,2012-04-06T01:30:00Z,29.6350,-93.6417,2.0,17.5262,11111222 
TABS,ioos:station:wmo:42051:1,2012-04-06T02:00:00Z,29.6350,-93.6417,2.0,17.5673,11111222 
TABS,ioos:station:wmo:42051:1,2012-04-06T02:30:00Z,29.6350,-93.6417,2.0,17.6095,11111222 
TABS,ioos:station:wmo:42051:1,2012-04-06T03:00:00Z,29.6350,-93.6417,2.0,17.7055,11111222 
TABS,ioos:station:wmo:42051:1,2012-04-06T03:30:00Z,29.6350,-93.6417,2.0,17.8102,11111222 
TABS,ioos:station:wmo:42051:1,2012-04-06T04:00:00Z,29.6350,-93.6417,2.0,17.8723,11111222 
TABS,ioos:station:wmo:42051:1,2012-04-06T04:30:00Z,29.6350,-93.6417,2.0,17.9763,11111222 
TABS,ioos:station:wmo:42051:1,2012-04-06T05:00:00Z,29.6350,-93.6417,2.0,18.044,11111222 
TABS,ioos:station:wmo:42051:1,2012-04-06T05:30:00Z,29.6350,-93.6417,2.0,18.1144,11111222 
TABS,ioos:station:wmo:42051:1,2012-04-06T06:00:00Z,29.6350,-93.6417,2.0,18.2104,11111222 
TABS,ioos:station:wmo:42051:1,2012-04-06T06:30:00Z,29.6350,-93.6417,2.0,18.2278,11111222 
TABS,ioos:station:wmo:42051:1,2012-04-06T07:00:00Z,29.6350,-93.6417,2.0,18.2997,11111222 
TABS,ioos:station:wmo:42051:1,2012-04-06T07:30:00Z,29.6350,-93.6417,2.0,18.3314,11111222 
TABS,ioos:station:wmo:42051:1,2012-04-06T08:00:00Z,29.6350,-93.6417,2.0,18.4352,11111222 
TABS,ioos:station:wmo:42051:1,2012-04-06T08:30:00Z,29.6350,-93.6417,2.0,18.3822,11111222 
TABS,ioos:station:wmo:42051:1,2012-04-06T09:00:00Z,29.6350,-93.6417,2.0,18.422,11111222 
TABS,ioos:station:wmo:42051:1,2012-04-06T09:30:00Z,29.6350,-93.6417,2.0,18.4539,11111222 
TABS,ioos:station:wmo:42051:1,2012-04-06T10:00:00Z,29.6350,-93.6417,2.0,18.5761,11111222 
TABS,ioos:station:wmo:42051:1,2012-04-06T10:30:00Z,29.6350,-93.6417,2.0,18.6365,11111222 
TABS,ioos:station:wmo:42051:1,2012-04-06T11:00:00Z,29.6350,-93.6417,2.0,18.6796,11111222 
TABS,ioos:station:wmo:42051:1,2012-04-06T11:30:00Z,29.6350,-93.6417,2.0,18.7994,11111222 
TABS,ioos:station:wmo:42051:1,2012-04-06T12:00:00Z,29.6350,-93.6417,2.0,18.7357,11111222 
TABS,ioos:station:wmo:42051:1,2012-04-06T12:30:00Z,29.6350,-93.6417,2.0,18.6879,11111222 
TABS,ioos:station:wmo:42051:1,2012-04-06T13:00:00Z,29.6350,-93.6417,2.0,18.6465,11111222 
TABS,ioos:station:wmo:42051:1,2012-04-06T13:30:00Z,29.6350,-93.6417,2.0,18.5824,11111222 